Donner Lake Weather Center

Moon Phase Calendar



Donner Lake Water Level
Online Cameras

 


      

Current Conditions in Truckee
5/25/2024 6:36:51 PM

54°F
Feels Like 51
Clouds
Humidity
53%
Pressure
30.06"
Wind
12.7 mph (SW)
Dew Point
37°F
UV Index
0/10 (Low)
Visibility
6 mi

Hourly Forecast

Date & Time Sat, May 25
6:00 PM
Sat, May 25
7:00 PM
Sat, May 25
8:00 PM
Sat, May 25
9:00 PM
Sat, May 25
10:00 PM
Sat, May 25
11:00 PM
Sun, May 26
12:00 AM
Sun, May 26
1:00 AM
Sun, May 26
2:00 AM
Sun, May 26
3:00 AM
Sun, May 26
4:00 AM
Sun, May 26
5:00 AM
Sun, May 26
6:00 AM
Sun, May 26
7:00 AM
Sun, May 26
8:00 AM
Sun, May 26
9:00 AM
Sun, May 26
10:00 AM
Sun, May 26
11:00 AM
Sun, May 26
12:00 PM
Sun, May 26
1:00 PM
Sun, May 26
2:00 PM
Sun, May 26
3:00 PM
Sun, May 26
4:00 PM
Sun, May 26
5:00 PM
Sun, May 26
6:00 PM
Sun, May 26
7:00 PM
Sun, May 26
8:00 PM
Sun, May 26
9:00 PM
Sun, May 26
10:00 PM
Sun, May 26
11:00 PM
Mon, May 27
12:00 AM
Mon, May 27
1:00 AM
Mon, May 27
2:00 AM
Mon, May 27
3:00 AM
Mon, May 27
4:00 AM
Mon, May 27
5:00 AM
Mon, May 27
6:00 AM
Mon, May 27
7:00 AM
Mon, May 27
8:00 AM
Mon, May 27
9:00 AM
Mon, May 27
10:00 AM
Mon, May 27
11:00 AM
Mon, May 27
12:00 PM
Mon, May 27
1:00 PM
Mon, May 27
2:00 PM
Mon, May 27
3:00 PM
Mon, May 27
4:00 PM
Mon, May 27
5:00 PM
Condition
Clouds

Clouds

Clouds

Clouds

Clouds

Clouds

Clear

Clear

Clear

Clear

Clear

Clear

Clear

Clear

Clear

Clear

Clear

Clear

Clear

Clear

Clear

Clear

Clear

Clear

Clouds

Clouds

Clouds

Clouds

Clouds

Clouds

Clear

Clear

Clear

Clear

Clear

Clear

Clouds

Clouds

Clear

Clear

Clear

Clear

Clear

Clouds

Clouds

Clouds

Clouds

Clouds
Temperature 54°F54°F52°F48°F44°F41°F37°F37°F37°F37°F37°F37°F38°F45°F54°F60°F65°F68°F70°F71°F72°F72°F70°F68°F65°F62°F54°F49°F47°F47°F47°F47°F46°F46°F45°F45°F46°F53°F61°F67°F70°F72°F74°F74°F73°F72°F71°F68°F
Feels Like 51°F51°F49°F48°F44°F41°F37°F37°F37°F37°F37°F37°F38°F45°F51°F57°F62°F66°F68°F69°F69°F70°F68°F65°F63°F60°F52°F49°F47°F47°F47°F47°F46°F46°F45°F45°F46°F50°F59°F64°F68°F70°F72°F73°F72°F70°F69°F66°F
Cloudiness 34%20%22%22%19%17%0%0%0%0%0%1%1%0%0%0%0%0%0%0%0%0%2%8%51%32%22%16%13%11%1%1%2%2%3%4%14%11%9%9%7%6%1%12%17%28%30%34%
Visibility 6 mi6 mi6 mi6 mi6 mi6 mi6 mi6 mi6 mi6 mi6 mi6 mi6 mi6 mi6 mi6 mi6 mi6 mi6 mi6 mi6 mi6 mi6 mi6 mi6 mi6 mi6 mi6 mi6 mi6 mi6 mi6 mi6 mi6 mi6 mi6 mi6 mi6 mi6 mi6 mi6 mi6 mi6 mi6 mi6 mi6 mi6 mi6 mi
Precipitation 0%0%0%0%0%0%0%0%0%0%0%0%0%0%0%0%0%0%0%0%0%0%0%0%0%0%0%0%0%0%0%0%0%0%0%0%0%0%0%0%0%0%0%0%0%0%0%0%
Humidity 51%53%57%66%75%81%77%66%58%53%49%48%46%37%26%20%18%17%16%17%18%20%24%29%35%42%62%73%76%75%74%73%73%72%70%68%65%51%36%26%22%21%22%24%27%31%32%36%
Dew Point 36°F37°F37°F37°F37°F35°F29°F25°F22°F20°F19°F18°F17°F19°F19°F19°F19°F20°F21°F23°F25°F28°F30°F33°F35°F37°F39°F38°F38°F38°F37°F37°F36°F35°F34°F33°F32°F33°F33°F30°F28°F29°F31°F34°F36°F38°F39°F39°F
Pressure 30.03"30.06"30.03"30.06"30.03"30.03"30.03"30.03"30.03"30.03"30.03"30.06"30.06"30.03"30"29.97"29.94"29.94"29.91"29.88"29.88"29.85"29.88"29.91"29.91"29.94"30"30.03"30.06"30.06"30.06"30.03"30.03"30.03"30.03"30.03"30.03"30.03"30"29.97"29.94"29.94"29.91"29.91"29.88"29.91"29.91"29.94"
Wind Speed 9 mph6.2 mph4.1 mph2.9 mph2.2 mph1.7 mph1.4 mph1.3 mph1.2 mph1 mph1 mph0.9 mph1.9 mph2.1 mph2.3 mph1.9 mph1.4 mph1.6 mph2.3 mph4.2 mph6.4 mph8.5 mph10.7 mph10.9 mph9.2 mph5.4 mph3.7 mph2.4 mph0.8 mph0.8 mph1 mph1.1 mph1.1 mph1.3 mph1.4 mph1.5 mph1.5 mph1.2 mph1.7 mph2.9 mph4.2 mph4.8 mph6 mph8.6 mph11.6 mph10.8 mph10.9 mph9.5 mph
Wind
Direction
242°
WSW
236°
SW
236°
SW
223°
SW
209°
SSW
207°
SSW
210°
SSW
197°
SSW
188°
S
170°
S
152°
SSE
113°
ESE
107°
ESE
110°
ESE
107°
ESE
124°
SE
167°
SSE
201°
SSW
232°
SW
247°
WSW
253°
WSW
258°
WSW
261°
W
262°
W
259°
W
257°
WSW
255°
WSW
256°
WSW
284°
WNW
32°
NNE
42°
NE
33°
NNE
60°
ENE
67°
ENE
78°
ENE
102°
ESE
101°
E
101°
E
102°
ESE
116°
ESE
149°
SSE
174°
S
210°
SSW
234°
SW
250°
WSW
257°
WSW
247°
WSW
244°
WSW

Daily Forecast

Date High Low Precip. Humidity
Today
May 25

Clear
59 °F
35 °F
0%
34%
Sunday
May 26

Clear
72 °F
37 °F
0%
16%
Monday
May 27

Rain
74 °F
45 °F
20%
22%
Tuesday
May 28

Clear
70 °F
44 °F
0%
20%
Wednesday
May 29

Clouds
69 °F
44 °F
0%
20%
Thursday
May 30

Clouds
76 °F
40 °F
0%
22%
Friday
May 31

Clear
78 °F
45 °F
0%
16%
Saturday
Jun 1

Clouds
73 °F
46 °F
0%
18%
Sunday
Jun 2

Clear
81 °F
46 °F
0%
12%
Monday
Jun 3

Clear
72 °F
47 °F
0%
25%
Tuesday
Jun 4

Clouds
69 °F
43 °F
0%
22%
Wednesday
Jun 5

Clouds
65 °F
43 °F
0%
36%
Thursday
Jun 6

Clouds
69 °F
44 °F
0%
36%
Friday
Jun 7

Rain
52 °F
41 °F
20%
93%
Saturday
Jun 8

Clouds
77 °F
39 °F
0%
16%
Sunday
Jun 9

Clear
82 °F
46 °F
0%
11%

Temperature 8-14 Day Outlook



Precipitation 8-14 Day Outlook






About Us
Contact Us
Site Map
Search Site
Advertise With Us
   
DonnerLake.LakesOnline.com
THE DONNER LAKE WEBSITE

Copyright 2024, Lakes Online
Privacy    |    Legal